Location: Chillicothe
(39.7950°N, 93.5520°W)
Time: 07:51:43
(UTC-05:00)

A-11 Canister half - All Passes

Search period start: 19 October 2019 00:00
Search period end: 29 October 2019 00:00
Orbit: 1527 x 1682 km, 47.3° (Epoch: 18 October)

Date Brightness Start Highest point End Pass type
(mag) Time Alt. Az. Time Alt. Az. Time Alt. Az.
19 Oct - 01:02:48 10° WNW 01:11:57 57° N 01:21:10 10° E night (unlit)
19 Oct - 03:08:12 10° WNW 03:17:33 85° SSW 03:27:04 10° SE visible
19 Oct - 05:14:01 10° WNW 05:21:41 29° SW 05:29:31 10° S visible
19 Oct - 18:29:50 10° SSE 18:35:23 17° SE 18:40:52 10° E daylight
19 Oct - 20:29:43 10° SW 20:39:01 62° SE 20:48:09 10° ENE visible
19 Oct - 22:34:47 10° W 22:44:07 65° NNW 22:53:23 10° ENE visible
20 Oct - 00:41:08 10° WNW 00:50:16 56° N 00:59:27 10° E visible
20 Oct - 02:46:34 10° WNW 02:55:56 87° SSW 03:05:26 10° ESE visible
20 Oct - 04:52:18 10° WNW 05:00:07 31° SW 05:08:06 10° S visible
20 Oct - 18:08:42 10° SSE 18:13:51 16° SE 18:18:55 10° E daylight
20 Oct - 20:08:09 10° SW 20:17:25 60° SE 20:26:30 10° ENE visible
20 Oct - 22:13:06 10° W 22:22:28 66° NNW 22:31:44 10° ENE visible
21 Oct - 00:19:27 10° WNW 00:28:36 56° N 00:37:46 10° E visible
21 Oct - 02:24:56 10° WNW 02:34:18 90° NNE 02:43:48 10° ESE visible
21 Oct - 04:30:35 10° WNW 04:38:34 33° SW 04:46:42 10° S visible
21 Oct - 17:47:39 10° SSE 17:52:19 15° ESE 17:56:54 10° E daylight
21 Oct - 19:46:35 10° SW 19:55:50 57° SE 20:04:52 10° ENE visible
21 Oct - 21:51:24 10° WSW 22:00:48 68° NNW 22:10:05 10° ENE visible
21 Oct - 23:57:47 10° WNW 00:06:55 55° N 00:16:04 10° E visible
22 Oct - 02:03:19 10° WNW 02:12:41 87° NNE 02:22:09 10° ESE night (unlit)
22 Oct - 04:08:53 10° WNW 04:17:00 35° SW 04:25:15 10° SSE visible
22 Oct - 17:26:40 10° SSE 17:30:46 13° ESE 17:34:49 10° E daylight
22 Oct - 19:25:03 10° SSW 19:34:14 54° SE 19:43:14 10° ENE visible
22 Oct - 21:29:43 10° WSW 21:39:09 69° NNW 21:48:28 10° ENE visible
22 Oct - 23:36:06 10° WNW 23:45:15 55° N 23:54:22 10° E visible
23 Oct - 01:41:41 10° WNW 01:51:03 85° NNE 02:00:30 10° ESE night (unlit)
23 Oct - 03:47:12 10° WNW 03:55:26 37° SW 04:03:49 10° SSE visible
23 Oct - 17:05:50 10° SE 17:09:14 12° ESE 17:12:36 10° E daylight
23 Oct - 19:03:30 10° SSW 19:12:39 52° SE 19:21:35 10° ENE visible
23 Oct - 21:08:02 10° WSW 21:17:30 71° NNW 21:26:49 10° ENE visible
23 Oct - 23:14:25 10° WNW 23:23:34 55° N 23:32:41 10° E visible
24 Oct - 01:20:03 10° WNW 01:29:25 82° NNE 01:38:51 10° ESE night (unlit)
24 Oct - 03:25:31 10° WNW 03:33:52 39° SW 03:42:22 10° SSE visible
24 Oct - 16:45:14 10° SE 16:47:41 11° ESE 16:50:09 10° ESE daylight
24 Oct - 18:41:58 10° SSW 18:51:04 49° SE 18:59:56 10° ENE visible
24 Oct - 20:46:20 10° WSW 20:55:51 73° NNW 21:05:11 10° ENE visible
24 Oct - 22:52:43 10° WNW 23:01:53 55° N 23:11:00 10° E visible
25 Oct - 00:58:25 10° WNW 01:07:48 80° NNE 01:17:12 10° ESE visible
25 Oct - 03:03:50 10° WNW 03:12:18 41° SW 03:20:54 10° SSE night (unlit)
25 Oct - 16:25:33 10° SE 16:26:10 10° ESE 16:26:46 10° ESE daylight
25 Oct - 18:20:27 10° SSW 18:29:28 47° SE 18:38:17 10° ENE daylight
25 Oct - 20:24:40 10° WSW 20:34:12 75° NNW 20:43:34 10° ENE visible
25 Oct - 22:31:02 10° WNW 22:40:13 54° N 22:49:19 10° ENE visible
26 Oct - 00:36:47 10° WNW 00:46:09 78° NNE 00:55:33 10° ESE visible
26 Oct - 02:42:10 10° WNW 02:50:44 43° SW 02:59:24 10° SSE night (unlit)
26 Oct - 17:58:55 10° SSW 18:07:53 45° SE 18:16:37 10° ENE daylight
26 Oct - 20:02:59 10° WSW 20:12:33 77° NNW 20:21:56 10° ENE visible
26 Oct - 22:09:20 10° WNW 22:18:32 54° N 22:27:38 10° ENE visible
27 Oct - 00:15:09 10° WNW 00:24:31 76° NNE 00:33:52 10° ESE visible
27 Oct - 02:20:30 10° WNW 02:29:09 45° SW 02:37:55 10° SSE night (unlit)
27 Oct - 17:37:25 10° SSW 17:46:18 43° SE 17:54:58 10° ENE daylight
27 Oct - 19:41:18 10° WSW 19:50:55 79° NNW 20:00:18 10° ENE visible
27 Oct - 21:47:38 10° WNW 21:56:51 55° N 22:05:58 10° ENE visible
27 Oct - 23:53:31 10° WNW 00:02:52 74° NNE 00:12:13 10° ESE visible
28 Oct - 01:58:50 10° WNW 02:07:35 48° SW 02:16:25 10° SSE night (unlit)
28 Oct - 04:10:19 10° WSW 04:10:50 10° WSW 04:11:22 10° SW night (unlit)
28 Oct - 17:15:56 10° SSW 17:24:44 41° SE 17:33:17 10° ENE daylight
28 Oct - 19:19:38 10° WSW 19:29:16 81° NNW 19:38:41 10° ENE visible
28 Oct - 21:25:56 10° W 21:35:10 55° N 21:44:17 10° ENE visible
28 Oct - 23:31:52 10° WNW 23:41:13 72° NNE 23:50:33 10° ESE visible
